Time,TemperatureF,DewpointF,PressureIn,WindDirection,WindDirectionDegrees,WindSpeedMPH,WindSpeedGustMPH,Humidity,HourlyPrecipIn,Conditions,Clouds,dailyrainin,SoftwareType,DateUTC
2013-05-20 00:00:00,67.6,67.0,30.03,NW,319,0.0,0.0,98,0.00,,---,0.87,VWS V14.01,2013-05-20 04:00:00,
2013-05-20 00:01:00,67.5,66.9,30.03,NW,319,0.0,0.0,98,0.00,,---,0.00,VWS V14.01,2013-05-20 04:01:00,
2013-05-20 00:06:00,67.4,66.8,30.02,NW,319,0.0,0.0,98,0.00,,---,0.00,VWS V14.01,2013-05-20 04:06:00,
2013-05-20 00:11:00,67.4,66.8,30.02,NW,319,0.0,2.0,98,0.00,,---,0.00,VWS V14.01,2013-05-20 04:11:00,
2013-05-20 00:16:00,67.4,66.8,30.02,NW,319,0.0,2.0,98,0.00,,---,0.00,VWS V14.01,2013-05-20 04:16:00,
2013-05-20 00:21:00,67.4,66.8,30.02,NW,319,0.0,2.0,98,0.00,,---,0.00,VWS V14.01,2013-05-20 04:21:00,
2013-05-20 00:26:00,67.4,66.8,30.02,NW,319,0.0,2.0,98,0.00,,---,0.00,VWS V14.01,2013-05-20 04:26:00,
2013-05-20 00:30:00,67.5,66.9,30.03,NW,319,0.0,0.0,98,0.00,,---,0.87,VWS V14.01,2013-05-20 04:30:00,
2013-05-20 00:31:00,67.4,66.8,30.02,NW,319,0.0,0.0,98,0.00,,---,0.00,VWS V14.01,2013-05-20 04:31:00,
2013-05-20 00:36:00,67.4,66.8,30.02,NW,319,0.0,0.0,98,0.00,,---,0.00,VWS V14.01,2013-05-20 04:36:00,
2013-05-20 00:41:00,67.5,66.9,30.02,NW,319,0.0,0.0,98,0.00,,---,0.00,VWS V14.01,2013-05-20 04:41:00,
2013-05-20 00:46:00,67.5,66.9,30.01,NW,319,0.0,0.0,98,0.00,,---,0.00,VWS V14.01,2013-05-20 04:46:00,
2013-05-20 00:51:00,67.4,66.8,30.01,NW,319,0.0,0.0,98,0.00,,---,0.00,VWS V14.01,2013-05-20 04:51:00,
2013-05-20 00:56:00,67.5,66.9,30.01,NW,319,0.0,0.0,98,0.00,,---,0.00,VWS V14.01,2013-05-20 04:56:00,
2013-05-20 01:00:00,67.5,66.9,30.03,NW,319,0.0,0.0,98,0.00,,---,0.00,VWS V14.01,2013-05-20 05:00:00,
2013-05-20 01:01:00,67.5,66.9,30.01,NW,319,0.0,0.0,98,0.00,,---,0.00,VWS V14.01,2013-05-20 05:01:00,
2013-05-20 01:06:00,67.5,66.9,30.01,NW,319,0.0,0.0,98,0.00,,---,0.00,VWS V14.01,2013-05-20 05:06:00,
2013-05-20 01:11:00,67.5,66.9,30.01,NW,319,0.0,0.0,98,0.00,,---,0.00,VWS V14.01,2013-05-20 05:11:00,
2013-05-20 01:16:00,67.5,66.9,30.01,NW,319,0.0,1.0,98,0.00,,---,0.00,VWS V14.01,2013-05-20 05:16:00,
2013-05-20 01:21:00,67.5,66.9,30.01,NW,319,0.0,2.0,98,0.00,,---,0.00,VWS V14.01,2013-05-20 05:21:00,
2013-05-20 01:26:00,67.5,66.9,30.01,NW,319,0.0,2.0,98,0.00,,---,0.00,VWS V14.01,2013-05-20 05:26:00,
2013-05-20 01:30:00,67.4,66.8,30.01,NW,319,0.0,2.0,98,0.00,,---,0.00,VWS V14.01,2013-05-20 05:30:00,
2013-05-20 01:31:00,67.6,67.0,30.01,NW,319,0.0,0.0,98,0.00,,---,0.00,VWS V14.01,2013-05-20 05:31:00,
2013-05-20 01:36:00,67.6,67.0,30.00,NW,319,0.0,0.0,98,0.00,,---,0.00,VWS V14.01,2013-05-20 05:36:00,
2013-05-20 01:41:00,67.6,67.0,30.00,NW,319,0.0,0.0,98,0.00,,---,0.00,VWS V14.01,2013-05-20 05:41:00,
2013-05-20 01:46:00,67.6,67.0,30.00,NW,319,0.0,0.0,98,0.00,,---,0.00,VWS V14.01,2013-05-20 05:46:00,
2013-05-20 01:51:00,67.6,67.0,30.01,NW,319,0.0,0.0,98,0.00,,---,0.00,VWS V14.01,2013-05-20 05:51:00,
2013-05-20 01:56:00,67.7,67.1,30.00,NW,319,0.0,3.0,98,0.00,,---,0.00,VWS V14.01,2013-05-20 05:56:00,
2013-05-20 02:00:00,67.5,66.9,30.01,NW,319,0.0,0.0,98,0.00,,---,0.00,VWS V14.01,2013-05-20 06:00:00,
2013-05-20 02:01:00,67.6,67.0,30.00,NW,319,0.0,0.0,98,0.00,,---,0.00,VWS V14.01,2013-05-20 06:01:00,
2013-05-20 02:06:00,67.6,67.0,30.00,NW,319,0.0,0.0,98,0.00,,---,0.00,VWS V14.01,2013-05-20 06:06:00,
2013-05-20 02:11:00,67.6,67.0,30.00,NW,319,0.0,0.0,98,0.00,,---,0.00,VWS V14.01,2013-05-20 06:11:00,
2013-05-20 02:16:00,67.6,67.0,30.00,NW,319,0.0,1.0,98,0.00,,---,0.00,VWS V14.01,2013-05-20 06:16:00,
2013-05-20 02:21:00,67.6,67.0,30.00,NW,319,0.0,1.0,98,0.00,,---,0.00,VWS V14.01,2013-05-20 06:21:00,
2013-05-20 02:26:00,67.6,67.0,30.00,NW,319,0.0,1.0,98,0.00,,---,0.00,VWS V14.01,2013-05-20 06:26:00,
2013-05-20 02:30:00,67.6,67.0,30.00,NW,319,0.0,2.0,98,0.00,,---,0.00,VWS V14.01,2013-05-20 06:30:00,
2013-05-20 02:31:00,67.6,67.0,30.00,NW,319,0.0,0.0,98,0.00,,---,0.00,VWS V14.01,2013-05-20 06:31:00,
2013-05-20 02:36:00,67.5,66.9,29.99,NW,319,0.0,0.0,98,0.00,,---,0.00,VWS V14.01,2013-05-20 06:36:00,
2013-05-20 02:41:00,67.5,66.9,29.99,NW,319,0.0,0.0,98,0.00,,---,0.00,VWS V14.01,2013-05-20 06:41:00,
2013-05-20 02:46:00,67.5,66.9,29.99,NW,319,0.0,0.0,98,0.00,,---,0.00,VWS V14.01,2013-05-20 06:46:00,
2013-05-20 02:51:00,67.5,66.9,29.99,NW,319,0.0,0.0,98,0.00,,---,0.00,VWS V14.01,2013-05-20 06:51:00,
2013-05-20 02:56:00,67.5,66.9,29.99,NW,319,0.0,0.0,98,0.00,,---,0.00,VWS V14.01,2013-05-20 06:56:00,
2013-05-20 03:00:00,67.6,67.0,30.00,NW,319,0.0,3.0,98,0.00,,---,0.00,VWS V14.01,2013-05-20 07:00:00,
2013-05-20 03:01:00,67.5,66.9,29.98,NW,319,0.0,0.0,98,0.00,,---,0.00,VWS V14.01,2013-05-20 07:01:00,
2013-05-20 03:06:00,67.5,66.9,29.98,NW,319,0.0,0.0,98,0.00,,---,0.00,VWS V14.01,2013-05-20 07:06:00,
2013-05-20 03:11:00,67.5,66.9,29.98,NW,319,0.0,0.0,98,0.00,,---,0.00,VWS V14.01,2013-05-20 07:11:00,
2013-05-20 03:16:00,67.5,66.9,29.98,NW,319,0.0,0.0,98,0.00,,---,0.00,VWS V14.01,2013-05-20 07:16:00,
2013-05-20 03:21:00,67.5,66.9,29.98,NW,319,0.0,0.0,98,0.00,,---,0.00,VWS V14.01,2013-05-20 07:21:00,
2013-05-20 03:26:00,67.5,66.9,29.98,NW,319,0.0,0.0,98,0.00,,---,0.00,VWS V14.01,2013-05-20 07:26:00,
2013-05-20 03:30:00,67.6,67.0,30.00,NW,319,0.0,1.0,98,0.00,,---,0.00,VWS V14.01,2013-05-20 07:30:00,
2013-05-20 03:31:00,67.5,66.9,29.98,NW,319,0.0,0.0,98,0.00,,---,0.00,VWS V14.01,2013-05-20 07:31:00,
2013-05-20 03:36:00,67.5,66.9,29.98,NW,319,0.0,0.0,98,0.00,,---,0.00,VWS V14.01,2013-05-20 07:36:00,
2013-05-20 03:41:00,67.5,66.9,29.98,NW,319,0.0,0.0,98,0.00,,---,0.00,VWS V14.01,2013-05-20 07:41:00,
2013-05-20 03:46:00,67.5,66.9,29.98,NW,319,0.0,0.0,98,0.00,,---,0.00,VWS V14.01,2013-05-20 07:46:00,
2013-05-20 03:51:00,67.5,66.9,29.98,NW,319,0.0,0.0,98,0.00,,---,0.00,VWS V14.01,2013-05-20 07:51:00,
2013-05-20 03:56:00,67.5,66.9,29.98,NW,319,0.0,0.0,98,0.00,,---,0.00,VWS V14.01,2013-05-20 07:56:00,
2013-05-20 04:00:00,67.5,66.9,29.99,NW,319,0.0,0.0,98,0.00,,---,0.00,VWS V14.01,2013-05-20 08:00:00,
2013-05-20 04:01:00,67.5,66.9,29.98,NW,319,0.0,0.0,98,0.00,,---,0.00,VWS V14.01,2013-05-20 08:01:00,
2013-05-20 04:06:00,67.5,66.9,29.98,NW,319,0.0,1.0,98,0.00,,---,0.00,VWS V14.01,2013-05-20 08:06:00,
2013-05-20 04:11:00,67.5,66.9,29.98,NW,319,0.0,1.0,98,0.00,,---,0.00,VWS V14.01,2013-05-20 08:11:00,
2013-05-20 04:16:00,67.5,66.9,29.98,NW,319,0.0,1.0,98,0.00,,---,0.00,VWS V14.01,2013-05-20 08:16:00,
2013-05-20 04:21:00,67.5,66.9,29.98,NW,322,2.0,2.0,98,0.00,,---,0.00,VWS V14.01,2013-05-20 08:21:00,
2013-05-20 04:26:00,67.5,66.9,29.98,NW,322,0.0,2.0,98,0.00,,---,0.00,VWS V14.01,2013-05-20 08:26:00,
2013-05-20 04:30:00,67.5,66.9,29.99,NW,319,0.0,0.0,98,0.00,,---,0.00,VWS V14.01,2013-05-20 08:30:00,
2013-05-20 04:31:00,67.5,66.9,29.98,NW,322,0.0,0.0,98,0.00,,---,0.00,VWS V14.01,2013-05-20 08:31:00,
2013-05-20 04:36:00,67.6,67.0,29.98,NW,322,0.0,0.0,98,0.00,,---,0.00,VWS V14.01,2013-05-20 08:36:00,
2013-05-20 04:41:00,67.5,66.9,29.99,NW,322,0.0,1.0,98,0.00,,---,0.00,VWS V14.01,2013-05-20 08:41:00,
2013-05-20 04:46:00,67.5,66.9,29.99,NW,322,1.0,2.0,98,0.01,,---,0.01,VWS V14.01,2013-05-20 08:46:00,
2013-05-20 04:51:00,67.5,66.9,29.99,NW,323,1.0,2.0,98,0.01,,---,0.01,VWS V14.01,2013-05-20 08:51:00,
2013-05-20 04:56:00,67.5,66.9,29.99,NW,323,0.0,2.0,98,0.01,,---,0.01,VWS V14.01,2013-05-20 08:56:00,
2013-05-20 05:00:00,67.5,66.9,29.98,NW,319,0.0,0.0,98,0.00,,---,0.00,VWS V14.01,2013-05-20 09:00:00,
2013-05-20 05:01:00,67.5,66.9,29.99,NW,323,1.0,1.0,98,0.01,,---,0.01,VWS V14.01,2013-05-20 09:01:00,
2013-05-20 05:05:00,67.5,66.9,29.99,NW,323,0.0,1.0,98,0.01,,---,0.01,VWS V14.01,2013-05-20 09:05:00,
2013-05-20 05:10:00,67.4,66.8,29.99,NW,323,1.0,2.0,98,0.01,,---,0.01,VWS V14.01,2013-05-20 09:10:00,
2013-05-20 05:15:00,67.4,66.8,29.99,NW,323,0.0,2.0,98,0.01,,---,0.01,VWS V14.01,2013-05-20 09:15:00,
2013-05-20 05:20:00,67.4,66.8,29.99,NW,323,0.0,2.0,98,0.01,,---,0.01,VWS V14.01,2013-05-20 09:20:00,
2013-05-20 05:25:00,67.4,66.8,29.99,NW,323,0.0,2.0,98,0.01,,---,0.01,VWS V14.01,2013-05-20 09:25:00,
2013-05-20 05:30:00,67.4,66.8,29.99,NW,323,0.0,0.0,98,0.01,,---,0.01,VWS V14.01,2013-05-20 09:30:00,
2013-05-20 05:35:00,67.3,66.7,29.99,NW,323,0.0,0.0,98,0.01,,---,0.01,VWS V14.01,2013-05-20 09:35:00,
2013-05-20 05:40:00,67.3,66.7,29.99,NW,323,0.0,0.0,98,0.01,,---,0.01,VWS V14.01,2013-05-20 09:40:00,
2013-05-20 05:45:00,67.3,66.7,30.00,NW,323,0.0,0.0,98,0.01,,---,0.01,VWS V14.01,2013-05-20 09:45:00,
2013-05-20 05:50:00,67.3,66.7,30.00,NW,323,0.0,2.0,98,0.01,,---,0.01,VWS V14.01,2013-05-20 09:50:00,
2013-05-20 05:55:00,67.2,66.6,30.00,NW,323,0.0,2.0,98,0.01,,---,0.01,VWS V14.01,2013-05-20 09:55:00,
2013-05-20 06:00:00,67.2,66.6,30.00,NW,323,0.0,0.0,98,0.00,,---,0.01,VWS V14.01,2013-05-20 10:00:00,
2013-05-20 06:05:00,67.2,66.6,30.00,NW,323,0.0,0.0,98,0.00,,---,0.01,VWS V14.01,2013-05-20 10:05:00,
2013-05-20 06:10:00,67.2,66.6,30.00,NW,323,0.0,0.0,98,0.00,,---,0.01,VWS V14.01,2013-05-20 10:10:00,
2013-05-20 06:15:00,67.2,66.6,30.00,NW,323,0.0,0.0,98,0.00,,---,0.01,VWS V14.01,2013-05-20 10:15:00,
2013-05-20 06:20:00,67.2,66.6,30.00,NW,323,0.0,0.0,98,0.00,,---,0.01,VWS V14.01,2013-05-20 10:20:00,
2013-05-20 06:25:00,67.1,66.5,30.00,NW,323,0.0,0.0,98,0.00,,---,0.01,VWS V14.01,2013-05-20 10:25:00,
2013-05-20 06:30:00,67.1,66.5,30.00,NW,323,0.0,0.0,98,0.00,,---,0.01,VWS V14.01,2013-05-20 10:30:00,
2013-05-20 06:35:00,67.1,66.5,30.00,NW,323,0.0,0.0,98,0.00,,---,0.01,VWS V14.01,2013-05-20 10:35:00,
2013-05-20 06:40:00,67.1,66.5,30.00,NW,323,0.0,0.0,98,0.00,,---,0.01,VWS V14.01,2013-05-20 10:40:00,
2013-05-20 06:45:00,67.0,66.4,30.00,NW,323,0.0,0.0,98,0.00,,---,0.01,VWS V14.01,2013-05-20 10:45:00,
2013-05-20 06:50:00,67.0,66.4,30.01,NW,323,0.0,0.0,98,0.00,,---,0.01,VWS V14.01,2013-05-20 10:50:00,
2013-05-20 06:55:00,67.0,66.4,30.01,NW,323,0.0,0.0,98,0.00,,---,0.01,VWS V14.01,2013-05-20 10:55:00,
2013-05-20 07:00:00,67.0,66.4,30.01,NW,323,0.0,0.0,98,0.00,,---,0.01,VWS V14.01,2013-05-20 11:00:00,
2013-05-20 07:05:00,67.0,66.4,30.01,NW,323,0.0,0.0,98,0.00,,---,0.01,VWS V14.01,2013-05-20 11:05:00,
2013-05-20 07:10:00,67.0,66.4,30.02,NW,323,0.0,0.0,98,0.01,,---,0.02,VWS V14.01,2013-05-20 11:10:00,
2013-05-20 07:15:00,67.0,66.4,30.02,NW,323,0.0,0.0,98,0.01,,---,0.02,VWS V14.01,2013-05-20 11:15:00,
2013-05-20 07:20:00,67.0,66.4,30.02,NW,323,0.0,0.0,98,0.01,,---,0.02,VWS V14.01,2013-05-20 11:20:00,
2013-05-20 07:25:00,67.0,66.4,30.03,NW,323,0.0,0.0,98,0.01,,---,0.02,VWS V14.01,2013-05-20 11:25:00,
2013-05-20 07:30:00,67.0,66.4,30.02,NW,323,0.0,0.0,98,0.03,,---,0.04,VWS V14.01,2013-05-20 11:30:00,
2013-05-20 07:35:00,67.0,66.4,30.02,NW,323,0.0,0.0,98,0.03,,---,0.04,VWS V14.01,2013-05-20 11:35:00,
2013-05-20 07:40:00,67.0,66.4,30.03,NW,323,0.0,0.0,98,0.05,,---,0.06,VWS V14.01,2013-05-20 11:40:00,
2013-05-20 07:45:00,67.0,66.4,30.02,NW,323,0.0,0.0,98,0.05,,---,0.06,VWS V14.01,2013-05-20 11:45:00,
2013-05-20 07:50:00,67.0,66.4,30.02,NW,323,0.0,0.0,98,0.05,,---,0.06,VWS V14.01,2013-05-20 11:50:00,
2013-05-20 07:55:00,67.1,66.5,30.02,NW,323,0.0,0.0,98,0.06,,---,0.07,VWS V14.01,2013-05-20 11:55:00,
2013-05-20 08:00:00,67.2,66.6,30.02,NW,323,0.0,0.0,98,0.07,,---,0.08,VWS V14.01,2013-05-20 12:00:00,
2013-05-20 08:05:00,67.2,66.9,30.02,NW,323,0.0,0.0,99,0.07,,---,0.08,VWS V14.01,2013-05-20 12:05:00,
2013-05-20 08:10:00,67.3,67.0,30.02,NW,323,0.0,0.0,99,0.08,,---,0.09,VWS V14.01,2013-05-20 12:10:00,
2013-05-20 08:15:00,67.3,66.7,30.02,NW,323,0.0,3.0,98,0.09,,---,0.10,VWS V14.01,2013-05-20 12:15:00,
2013-05-20 08:20:00,67.3,66.7,30.02,NW,323,0.0,3.0,98,0.09,,---,0.10,VWS V14.01,2013-05-20 12:20:00,
2013-05-20 08:25:00,67.3,66.7,30.02,NW,323,0.0,3.0,98,0.10,,---,0.11,VWS V14.01,2013-05-20 12:25:00,
2013-05-20 08:30:00,67.4,66.8,30.02,NW,323,0.0,3.0,98,0.11,,---,0.12,VWS V14.01,2013-05-20 12:30:00,
2013-05-20 08:35:00,67.3,66.7,30.02,NW,323,0.0,0.0,98,0.09,,---,0.13,VWS V14.01,2013-05-20 12:35:00,
2013-05-20 08:40:00,67.4,66.8,30.02,NW,323,0.0,0.0,98,0.10,,---,0.14,VWS V14.01,2013-05-20 12:40:00,
2013-05-20 08:45:00,67.4,66.8,30.02,NW,323,0.0,0.0,98,0.11,,---,0.15,VWS V14.01,2013-05-20 12:45:00,
2013-05-20 08:50:00,67.4,66.8,30.02,NW,323,0.0,0.0,98,0.12,,---,0.16,VWS V14.01,2013-05-20 12:50:00,
2013-05-20 08:55:00,67.4,66.8,30.02,NW,323,0.0,0.0,98,0.14,,---,0.18,VWS V14.01,2013-05-20 12:55:00,
2013-05-20 09:00:00,67.4,66.8,30.02,NW,323,0.0,1.0,98,0.14,,---,0.18,VWS V14.01,2013-05-20 13:00:00,
2013-05-20 09:05:00,67.4,66.8,30.02,NW,323,0.0,2.0,98,0.11,,---,0.19,VWS V14.01,2013-05-20 13:05:00,
2013-05-20 09:10:00,67.5,66.9,30.02,NW,323,0.0,2.0,98,0.12,,---,0.20,VWS V14.01,2013-05-20 13:10:00,
2013-05-20 09:15:00,67.5,66.9,30.02,NW,323,0.0,2.0,98,0.13,,---,0.21,VWS V14.01,2013-05-20 13:15:00,
2013-05-20 09:20:00,67.6,67.0,30.03,NW,323,0.0,2.0,98,0.14,,---,0.22,VWS V14.01,2013-05-20 13:20:00,
2013-05-20 09:25:00,67.6,67.0,30.03,NW,323,0.0,3.0,98,0.15,,---,0.23,VWS V14.01,2013-05-20 13:25:00,
2013-05-20 09:30:00,67.6,67.0,30.03,NW,323,0.0,4.0,98,0.16,,---,0.24,VWS V14.01,2013-05-20 13:30:00,
2013-05-20 09:35:00,67.7,67.1,30.03,NW,323,0.0,1.0,98,0.12,,---,0.24,VWS V14.01,2013-05-20 13:35:00,
2013-05-20 09:40:00,67.7,67.1,30.03,NW,323,0.0,1.0,98,0.13,,---,0.25,VWS V14.01,2013-05-20 13:40:00,
2013-05-20 09:45:00,67.8,67.2,30.03,NW,317,0.0,3.0,98,0.14,,---,0.26,VWS V14.01,2013-05-20 13:45:00,
2013-05-20 09:50:00,67.8,67.2,30.03,NW,317,0.0,3.0,98,0.14,,---,0.26,VWS V14.01,2013-05-20 13:50:00,
2013-05-20 09:55:00,67.9,67.6,30.03,NW,317,0.0,3.0,99,0.14,,---,0.26,VWS V14.01,2013-05-20 13:55:00,
2013-05-20 10:00:00,68.2,67.9,30.03,NW,317,2.0,3.0,99,0.14,,---,0.26,VWS V14.01,2013-05-20 14:00:00,
2013-05-20 10:05:00,68.4,68.1,30.02,NW,317,1.0,3.0,99,0.09,,---,0.27,VWS V14.01,2013-05-20 14:05:00,
2013-05-20 10:10:00,68.6,68.3,30.02,NW,317,1.0,3.0,99,0.09,,---,0.27,VWS V14.01,2013-05-20 14:10:00,
2013-05-20 10:15:00,68.7,68.4,30.03,NW,317,0.0,3.0,99,0.09,,---,0.27,VWS V14.01,2013-05-20 14:15:00,
2013-05-20 10:20:00,68.7,68.4,30.03,NW,317,0.0,3.0,99,0.09,,---,0.27,VWS V14.01,2013-05-20 14:20:00,
2013-05-20 10:25:00,68.8,68.5,30.03,NE,35,0.0,3.0,99,0.09,,---,0.27,VWS V14.01,2013-05-20 14:25:00,
2013-05-20 10:30:00,68.9,68.6,30.03,West,263,0.0,3.0,99,0.09,,---,0.27,VWS V14.01,2013-05-20 14:30:00,
2013-05-20 10:35:00,69.0,68.7,30.03,West,263,1.0,1.0,99,0.03,,---,0.27,VWS V14.01,2013-05-20 14:35:00,
2013-05-20 10:40:00,69.3,69.0,30.03,West,263,0.0,1.0,99,0.03,,---,0.27,VWS V14.01,2013-05-20 14:40:00,
2013-05-20 10:45:00,69.5,69.2,30.03,West,263,1.0,1.0,99,0.03,,---,0.27,VWS V14.01,2013-05-20 14:45:00,
2013-05-20 10:50:00,69.7,69.4,30.03,West,263,0.0,2.0,99,0.03,,---,0.27,VWS V14.01,2013-05-20 14:50:00,
2013-05-20 10:55:00,69.8,69.5,30.03,West,263,0.0,2.0,99,0.03,,---,0.27,VWS V14.01,2013-05-20 14:55:00,
2013-05-20 11:00:00,69.9,69.6,30.03,West,279,0.0,3.0,99,0.03,,---,0.27,VWS V14.01,2013-05-20 15:00:00,
2013-05-20 11:05:00,70.0,69.7,30.03,West,279,0.0,0.0,99,0.01,,---,0.27,VWS V14.01,2013-05-20 15:05:00,
2013-05-20 11:10:00,70.1,69.8,30.03,West,279,0.0,0.0,99,0.01,,---,0.27,VWS V14.01,2013-05-20 15:10:00,
2013-05-20 11:15:00,70.3,70.0,30.02,West,279,2.0,3.0,99,0.01,,---,0.27,VWS V14.01,2013-05-20 15:15:00,
2013-05-20 11:20:00,70.2,69.9,30.02,West,279,0.0,3.0,99,0.01,,---,0.27,VWS V14.01,2013-05-20 15:20:00,
2013-05-20 11:25:00,70.4,70.1,30.02,West,279,0.0,3.0,99,0.01,,---,0.27,VWS V14.01,2013-05-20 15:25:00,
2013-05-20 11:30:00,70.6,70.3,30.02,West,279,0.0,3.0,99,0.01,,---,0.27,VWS V14.01,2013-05-20 15:30:00,
2013-05-20 11:35:00,70.7,70.4,30.02,West,279,0.0,0.0,99,0.00,,---,0.27,VWS V14.01,2013-05-20 15:35:00,
2013-05-20 11:40:00,70.7,70.4,30.02,South,186,0.0,0.0,99,0.00,,---,0.27,VWS V14.01,2013-05-20 15:40:00,
2013-05-20 11:45:00,71.0,70.7,30.02,South,186,0.0,0.0,99,0.00,,---,0.27,VWS V14.01,2013-05-20 15:45:00,
2013-05-20 11:50:00,71.2,70.9,30.02,South,186,0.0,0.0,99,0.00,,---,0.27,VWS V14.01,2013-05-20 15:50:00,
2013-05-20 11:55:00,71.2,70.9,30.02,South,187,1.0,1.0,99,0.00,,---,0.27,VWS V14.01,2013-05-20 15:55:00,
2013-05-20 12:00:00,71.2,70.6,30.02,South,187,0.0,2.0,98,0.00,,---,0.27,VWS V14.01,2013-05-20 16:00:00,
2013-05-20 12:05:00,71.1,70.5,30.02,South,187,1.0,1.0,98,0.00,,---,0.27,VWS V14.01,2013-05-20 16:05:00,
2013-05-20 12:10:00,71.1,70.5,30.01,South,187,0.0,2.0,98,0.00,,---,0.27,VWS V14.01,2013-05-20 16:10:00,
2013-05-20 12:15:00,71.3,70.7,30.01,South,187,0.0,2.0,98,0.00,,---,0.27,VWS V14.01,2013-05-20 16:15:00,
2013-05-20 12:20:00,71.6,71.0,30.01,WNW,291,2.0,3.0,98,0.00,,---,0.27,VWS V14.01,2013-05-20 16:20:00,
2013-05-20 12:25:00,71.7,71.1,30.00,WNW,291,0.0,3.0,98,0.00,,---,0.27,VWS V14.01,2013-05-20 16:25:00,
2013-05-20 12:30:00,71.9,71.3,30.01,WNW,291,0.0,3.0,98,0.00,,---,0.27,VWS V14.01,2013-05-20 16:30:00,
2013-05-20 12:35:00,71.9,71.3,30.01,WNW,291,0.0,1.0,98,0.00,,---,0.27,VWS V14.01,2013-05-20 16:35:00,
2013-05-20 12:40:00,72.2,71.6,30.00,WNW,291,0.0,1.0,98,0.00,,---,0.27,VWS V14.01,2013-05-20 16:40:00,
2013-05-20 12:45:00,72.2,71.6,30.01,WNW,291,0.0,1.0,98,0.00,,---,0.27,VWS V14.01,2013-05-20 16:45:00,
2013-05-20 12:50:00,72.5,71.9,30.00,WNW,291,0.0,1.0,98,0.00,,---,0.27,VWS V14.01,2013-05-20 16:50:00,
2013-05-20 12:55:00,72.7,72.1,30.00,WNW,291,0.0,1.0,98,0.00,,---,0.27,VWS V14.01,2013-05-20 16:55:00,
2013-05-20 13:00:00,72.8,71.9,30.00,WNW,291,1.0,2.0,97,0.00,,---,0.27,VWS V14.01,2013-05-20 17:00:00,
2013-05-20 13:05:00,72.9,72.0,29.99,NW,306,0.0,3.0,97,0.00,,---,0.27,VWS V14.01,2013-05-20 17:05:00,
2013-05-20 13:10:00,73.3,72.4,29.99,NW,306,0.0,3.0,97,0.00,,---,0.27,VWS V14.01,2013-05-20 17:10:00,
2013-05-20 13:15:00,73.6,72.4,29.99,NW,306,0.0,3.0,96,0.00,,---,0.27,VWS V14.01,2013-05-20 17:15:00,
2013-05-20 13:20:00,73.9,72.4,29.99,ENE,64,1.0,3.0,95,0.00,,---,0.27,VWS V14.01,2013-05-20 17:20:00,
2013-05-20 13:25:00,74.2,72.7,29.99,ENE,63,0.0,3.0,95,0.00,,---,0.27,VWS V14.01,2013-05-20 17:25:00,
2013-05-20 13:30:00,74.7,72.9,29.98,ENE,63,0.0,3.0,94,0.00,,---,0.27,VWS V14.01,2013-05-20 17:30:00,
2013-05-20 13:35:00,74.8,72.6,29.99,NNE,33,0.0,2.0,93,0.00,,---,0.27,VWS V14.01,2013-05-20 17:35:00,
2013-05-20 13:40:00,74.9,72.4,29.99,NNE,30,0.0,2.0,92,0.00,,---,0.27,VWS V14.01,2013-05-20 17:40:00,
2013-05-20 13:45:00,74.9,72.4,29.98,NNE,30,0.0,2.0,92,0.00,,---,0.27,VWS V14.01,2013-05-20 17:45:00,
2013-05-20 13:50:00,74.9,72.4,29.98,NNE,30,0.0,2.0,92,0.00,,---,0.27,VWS V14.01,2013-05-20 17:50:00,
2013-05-20 13:55:00,74.7,72.2,29.99,NE,46,0.0,2.0,92,0.00,,---,0.27,VWS V14.01,2013-05-20 17:55:00,
2013-05-20 14:00:00,74.5,72.0,29.98,NE,46,0.0,2.0,92,0.00,,---,0.27,VWS V14.01,2013-05-20 18:00:00,
2013-05-20 14:05:00,74.4,71.6,29.98,NE,46,0.0,2.0,91,0.00,,---,0.27,VWS V14.01,2013-05-20 18:05:00,
2013-05-20 14:10:00,74.2,71.4,29.98,NW,321,0.0,2.0,91,0.00,,---,0.27,VWS V14.01,2013-05-20 18:10:00,
2013-05-20 14:15:00,73.9,70.8,29.98,West,281,2.0,4.0,90,0.00,,---,0.27,VWS V14.01,2013-05-20 18:15:00,
2013-05-20 14:20:00,73.8,71.0,29.99,WNW,290,0.0,6.0,91,0.00,,---,0.27,VWS V14.01,2013-05-20 18:20:00,
2013-05-20 14:25:00,73.9,70.8,30.00,North,355,0.0,6.0,90,0.00,,---,0.27,VWS V14.01,2013-05-20 18:25:00,
2013-05-20 14:30:00,74.0,71.2,30.00,NNW,337,1.0,6.0,91,0.00,,---,0.27,VWS V14.01,2013-05-20 18:30:00,
2013-05-20 14:35:00,74.0,70.6,29.99,NW,321,0.0,4.0,89,0.00,,---,0.27,VWS V14.01,2013-05-20 18:35:00,
2013-05-20 14:40:00,73.8,70.4,29.99,NNW,339,0.0,6.0,89,0.00,,---,0.27,VWS V14.01,2013-05-20 18:40:00,
2013-05-20 14:45:00,73.5,70.4,29.98,NNW,327,0.0,6.0,90,0.00,,---,0.27,VWS V14.01,2013-05-20 18:45:00,
2013-05-20 14:50:00,73.2,70.1,29.98,WNW,283,0.0,6.0,90,0.00,,---,0.27,VWS V14.01,2013-05-20 18:50:00,
2013-05-20 14:55:00,73.0,70.5,29.98,WNW,286,1.0,6.0,92,0.00,,---,0.27,VWS V14.01,2013-05-20 18:55:00,
2013-05-20 15:00:00,72.8,70.3,29.97,NW,315,0.0,6.0,92,0.01,,---,0.28,VWS V14.01,2013-05-20 19:00:00,
2013-05-20 15:05:00,72.6,70.5,29.98,WNW,284,3.0,4.0,93,0.01,,---,0.28,VWS V14.01,2013-05-20 19:05:00,
2013-05-20 15:10:00,72.4,70.3,29.97,West,273,0.0,4.0,93,0.01,,---,0.28,VWS V14.01,2013-05-20 19:10:00,
2013-05-20 15:15:00,72.3,70.5,29.97,North,355,2.0,5.0,94,0.01,,---,0.28,VWS V14.01,2013-05-20 19:15:00,
2013-05-20 15:20:00,72.3,70.8,29.98,NNW,336,0.0,5.0,95,0.01,,---,0.28,VWS V14.01,2013-05-20 19:20:00,
2013-05-20 15:25:00,72.3,70.8,29.98,WNW,303,0.0,5.0,95,0.01,,---,0.28,VWS V14.01,2013-05-20 19:25:00,
2013-05-20 15:30:00,72.3,70.8,29.98,WSW,244,2.0,5.0,95,0.01,,---,0.28,VWS V14.01,2013-05-20 19:30:00,
2013-05-20 15:35:00,72.2,70.4,29.98,West,277,1.0,6.0,94,0.01,,---,0.28,VWS V14.01,2013-05-20 19:35:00,
2013-05-20 15:40:00,72.1,70.3,29.98,West,277,2.0,6.0,94,0.01,,---,0.28,VWS V14.01,2013-05-20 19:40:00,
2013-05-20 15:45:00,72.0,70.2,29.98,West,273,2.0,6.0,94,0.01,,---,0.28,VWS V14.01,2013-05-20 19:45:00,
2013-05-20 15:50:00,71.8,70.0,29.99,West,268,0.0,6.0,94,0.01,,---,0.28,VWS V14.01,2013-05-20 19:50:00,
2013-05-20 15:55:00,71.8,70.0,29.99,West,268,0.0,6.0,94,0.01,,---,0.28,VWS V14.01,2013-05-20 19:55:00,
2013-05-20 16:00:00,71.6,69.5,29.98,West,268,1.0,6.0,93,0.01,,---,0.28,VWS V14.01,2013-05-20 20:00:00,
2013-05-20 16:05:00,71.2,68.8,29.98,NW,304,0.0,0.0,92,0.00,,---,0.28,VWS V14.01,2013-05-20 20:05:00,
2013-05-20 16:10:00,71.0,69.2,29.97,SW,219,0.0,0.0,94,0.00,,---,0.28,VWS V14.01,2013-05-20 20:10:00,
2013-05-20 16:15:00,70.9,69.1,29.97,SW,219,0.0,0.0,94,0.00,,---,0.28,VWS V14.01,2013-05-20 20:15:00,
2013-05-20 16:20:00,70.8,69.3,29.97,SW,219,0.0,0.0,95,0.01,,---,0.29,VWS V14.01,2013-05-20 20:20:00,
2013-05-20 16:25:00,70.8,69.3,29.97,SW,219,0.0,0.0,95,0.01,,---,0.29,VWS V14.01,2013-05-20 20:25:00,
2013-05-20 16:30:00,70.8,69.3,29.97,SW,233,0.0,0.0,95,0.01,,---,0.29,VWS V14.01,2013-05-20 20:30:00,
2013-05-20 16:35:00,70.8,69.3,29.98,SW,233,0.0,1.0,95,0.01,,---,0.29,VWS V14.01,2013-05-20 20:35:00,
2013-05-20 16:40:00,70.8,69.3,29.97,North,5,0.0,1.0,95,0.02,,---,0.30,VWS V14.01,2013-05-20 20:40:00,
2013-05-20 16:45:00,70.7,69.2,29.97,NE,36,0.0,1.0,95,0.02,,---,0.30,VWS V14.01,2013-05-20 20:45:00,
2013-05-20 16:50:00,70.8,69.3,29.98,NE,36,0.0,1.0,95,0.02,,---,0.30,VWS V14.01,2013-05-20 20:50:00,
2013-05-20 16:55:00,70.6,69.1,29.97,NE,36,0.0,2.0,95,0.03,,---,0.31,VWS V14.01,2013-05-20 20:55:00,
2013-05-20 17:00:00,70.5,69.0,29.97,NE,36,0.0,2.0,95,0.03,,---,0.31,VWS V14.01,2013-05-20 21:00:00,
2013-05-20 17:05:00,70.4,68.9,29.96,NE,36,0.0,0.0,95,0.04,,---,0.32,VWS V14.01,2013-05-20 21:05:00,
2013-05-20 17:10:00,70.4,69.2,29.96,NE,36,0.0,0.0,96,0.04,,---,0.32,VWS V14.01,2013-05-20 21:10:00,
2013-05-20 17:15:00,70.5,69.3,29.96,NE,36,0.0,1.0,96,0.04,,---,0.32,VWS V14.01,2013-05-20 21:15:00,
2013-05-20 17:20:00,70.6,69.4,29.96,NE,36,0.0,1.0,96,0.04,,---,0.32,VWS V14.01,2013-05-20 21:20:00,
2013-05-20 17:25:00,70.7,69.5,29.95,NE,36,0.0,1.0,96,0.04,,---,0.32,VWS V14.01,2013-05-20 21:25:00,
2013-05-20 17:30:00,70.8,69.6,29.95,NE,36,0.0,1.0,96,0.04,,---,0.32,VWS V14.01,2013-05-20 21:30:00,
2013-05-20 17:35:00,70.9,70.0,29.95,NE,36,0.0,0.0,97,0.03,,---,0.32,VWS V14.01,2013-05-20 21:35:00,
2013-05-20 17:40:00,71.2,70.3,29.95,NE,36,0.0,0.0,97,0.03,,---,0.32,VWS V14.01,2013-05-20 21:40:00,
2013-05-20 17:45:00,71.4,70.5,29.95,NW,310,2.0,3.0,97,0.03,,---,0.32,VWS V14.01,2013-05-20 21:45:00,
2013-05-20 17:50:00,71.6,70.7,29.95,NW,304,0.0,3.0,97,0.03,,---,0.32,VWS V14.01,2013-05-20 21:50:00,
2013-05-20 17:55:00,71.6,70.4,29.95,NW,304,0.0,4.0,96,0.03,,---,0.32,VWS V14.01,2013-05-20 21:55:00,
2013-05-20 18:00:00,71.7,70.5,29.95,NW,304,0.0,4.0,96,0.03,,---,0.32,VWS V14.01,2013-05-20 22:00:00,
2013-05-20 18:05:00,71.7,70.5,29.95,West,263,0.0,0.0,96,0.01,,---,0.32,VWS V14.01,2013-05-20 22:05:00,
2013-05-20 18:10:00,71.8,70.6,29.95,West,263,0.0,0.0,96,0.01,,---,0.32,VWS V14.01,2013-05-20 22:10:00,
2013-05-20 18:15:00,71.8,70.6,29.95,West,263,0.0,0.0,96,0.01,,---,0.32,VWS V14.01,2013-05-20 22:15:00,
2013-05-20 18:20:00,72.0,70.8,29.95,West,263,0.0,0.0,96,0.01,,---,0.32,VWS V14.01,2013-05-20 22:20:00,
2013-05-20 18:25:00,72.1,70.9,29.95,West,263,0.0,0.0,96,0.01,,---,0.32,VWS V14.01,2013-05-20 22:25:00,
2013-05-20 18:30:00,72.2,71.0,29.95,West,263,0.0,1.0,96,0.01,,---,0.32,VWS V14.01,2013-05-20 22:30:00,
2013-05-20 18:35:00,72.3,71.1,29.95,West,263,0.0,0.0,96,0.00,,---,0.32,VWS V14.01,2013-05-20 22:35:00,
2013-05-20 18:40:00,72.2,71.0,29.95,West,263,0.0,0.0,96,0.00,,---,0.32,VWS V14.01,2013-05-20 22:40:00,
2013-05-20 18:45:00,72.2,71.0,29.95,West,263,0.0,0.0,96,0.00,,---,0.32,VWS V14.01,2013-05-20 22:45:00,
2013-05-20 18:50:00,72.2,70.7,29.95,West,263,0.0,1.0,95,0.00,,---,0.32,VWS V14.01,2013-05-20 22:50:00,
2013-05-20 18:55:00,72.2,70.7,29.95,West,263,0.0,1.0,95,0.00,,---,0.32,VWS V14.01,2013-05-20 22:55:00,
2013-05-20 19:00:00,72.1,70.6,29.95,West,263,0.0,1.0,95,0.00,,---,0.32,VWS V14.01,2013-05-20 23:00:00,
2013-05-20 19:05:00,72.0,70.5,29.94,West,263,0.0,0.0,95,0.00,,---,0.32,VWS V14.01,2013-05-20 23:05:00,
2013-05-20 19:10:00,72.0,70.5,29.94,West,263,0.0,0.0,95,0.00,,---,0.32,VWS V14.01,2013-05-20 23:10:00,
2013-05-20 19:15:00,72.0,70.5,29.94,SE,126,0.0,0.0,95,0.00,,---,0.32,VWS V14.01,2013-05-20 23:15:00,
2013-05-20 19:20:00,72.0,70.5,29.94,SE,126,0.0,0.0,95,0.00,,---,0.32,VWS V14.01,2013-05-20 23:20:00,
2013-05-20 19:25:00,71.9,70.4,29.94,SE,130,0.0,0.0,95,0.00,,---,0.32,VWS V14.01,2013-05-20 23:25:00,
2013-05-20 19:30:00,72.0,70.5,29.94,WSW,252,0.0,0.0,95,0.00,,---,0.32,VWS V14.01,2013-05-20 23:30:00,
2013-05-20 19:35:00,71.9,70.4,29.95,WSW,252,0.0,0.0,95,0.00,,---,0.32,VWS V14.01,2013-05-20 23:35:00,
2013-05-20 19:40:00,71.9,70.4,29.95,WSW,252,0.0,0.0,95,0.00,,---,0.32,VWS V14.01,2013-05-20 23:40:00,
2013-05-20 19:45:00,71.9,70.4,29.95,WSW,252,0.0,0.0,95,0.00,,---,0.32,VWS V14.01,2013-05-20 23:45:00,
2013-05-20 19:50:00,71.9,70.4,29.95,WSW,252,0.0,0.0,95,0.00,,---,0.32,VWS V14.01,2013-05-20 23:50:00,
2013-05-20 19:55:00,71.8,70.3,29.96,WSW,252,0.0,0.0,95,0.00,,---,0.32,VWS V14.01,2013-05-20 23:55:00,
2013-05-20 20:00:00,71.7,70.2,29.95,WSW,252,0.0,0.0,95,0.00,,---,0.32,VWS V14.01,2013-05-21 00:00:00,
2013-05-20 20:05:00,71.6,70.1,29.96,WSW,252,0.0,0.0,95,0.00,,---,0.32,VWS V14.01,2013-05-21 00:05:00,
2013-05-20 20:10:00,71.4,69.9,29.96,West,279,0.0,0.0,95,0.00,,---,0.32,VWS V14.01,2013-05-21 00:10:00,
2013-05-20 20:15:00,71.3,69.8,29.96,West,279,0.0,0.0,95,0.00,,---,0.32,VWS V14.01,2013-05-21 00:15:00,
2013-05-20 20:20:00,71.2,69.7,29.96,West,279,0.0,0.0,95,0.00,,---,0.32,VWS V14.01,2013-05-21 00:20:00,
2013-05-20 20:25:00,71.1,69.6,29.97,West,279,0.0,0.0,95,0.00,,---,0.32,VWS V14.01,2013-05-21 00:25:00,
2013-05-20 20:30:00,71.0,69.5,29.97,West,279,0.0,0.0,95,0.00,,---,0.32,VWS V14.01,2013-05-21 00:30:00,
2013-05-20 20:35:00,70.9,69.4,29.97,West,279,0.0,0.0,95,0.00,,---,0.32,VWS V14.01,2013-05-21 00:35:00,
2013-05-20 20:40:00,70.8,69.0,29.97,West,279,0.0,0.0,94,0.00,,---,0.32,VWS V14.01,2013-05-21 00:40:00,
2013-05-20 20:45:00,70.6,68.8,29.97,West,279,0.0,0.0,94,0.00,,---,0.32,VWS V14.01,2013-05-21 00:45:00,
2013-05-20 20:50:00,70.5,69.0,29.97,West,279,0.0,0.0,95,0.00,,---,0.32,VWS V14.01,2013-05-21 00:50:00,
2013-05-20 20:55:00,70.4,68.9,29.96,West,279,0.0,0.0,95,0.00,,---,0.32,VWS V14.01,2013-05-21 00:55:00,
2013-05-20 21:00:00,70.3,68.8,29.97,West,279,0.0,0.0,95,0.00,,---,0.32,VWS V14.01,2013-05-21 01:00:00,
2013-05-20 21:05:00,70.1,68.6,29.96,West,279,0.0,0.0,95,0.00,,---,0.32,VWS V14.01,2013-05-21 01:05:00,
2013-05-20 21:10:00,69.9,68.4,29.97,West,279,0.0,0.0,95,0.00,,---,0.32,VWS V14.01,2013-05-21 01:10:00,
2013-05-20 21:15:00,69.8,68.3,29.97,West,279,0.0,0.0,95,0.00,,---,0.32,VWS V14.01,2013-05-21 01:15:00,
2013-05-20 21:20:00,69.7,68.2,29.97,West,279,0.0,0.0,95,0.00,,---,0.32,VWS V14.01,2013-05-21 01:20:00,
2013-05-20 21:25:00,69.6,68.4,29.97,West,279,0.0,0.0,96,0.00,,---,0.32,VWS V14.01,2013-05-21 01:25:00,
2013-05-20 21:30:00,69.5,68.3,29.97,West,279,0.0,0.0,96,0.00,,---,0.32,VWS V14.01,2013-05-21 01:30:00,
2013-05-20 21:35:00,69.4,68.2,29.97,West,279,0.0,0.0,96,0.00,,---,0.32,VWS V14.01,2013-05-21 01:35:00,
2013-05-20 21:40:00,69.4,68.2,29.97,West,279,0.0,1.0,96,0.00,,---,0.32,VWS V14.01,2013-05-21 01:40:00,
2013-05-20 21:45:00,69.4,68.2,29.97,West,279,0.0,1.0,96,0.00,,---,0.32,VWS V14.01,2013-05-21 01:45:00,
2013-05-20 21:50:00,69.3,68.1,29.97,West,279,0.0,1.0,96,0.00,,---,0.32,VWS V14.01,2013-05-21 01:50:00,
2013-05-20 21:55:00,69.2,68.0,29.97,West,279,0.0,1.0,96,0.00,,---,0.32,VWS V14.01,2013-05-21 01:55:00,
2013-05-20 22:00:00,69.2,68.0,29.97,West,279,0.0,1.0,96,0.00,,---,0.32,VWS V14.01,2013-05-21 02:00:00,
2013-05-20 22:05:00,69.1,67.9,29.97,West,279,0.0,0.0,96,0.00,,---,0.32,VWS V14.01,2013-05-21 02:05:00,
2013-05-20 22:10:00,69.0,67.8,29.97,West,279,0.0,0.0,96,0.00,,---,0.32,VWS V14.01,2013-05-21 02:10:00,
2013-05-20 22:15:00,69.0,67.8,29.96,West,279,0.0,0.0,96,0.00,,---,0.32,VWS V14.01,2013-05-21 02:15:00,
2013-05-20 22:20:00,68.9,67.7,29.96,West,279,0.0,0.0,96,0.00,,---,0.32,VWS V14.01,2013-05-21 02:20:00,
2013-05-20 22:25:00,68.9,67.7,29.96,West,279,0.0,0.0,96,0.00,,---,0.32,VWS V14.01,2013-05-21 02:25:00,
2013-05-20 22:30:00,68.8,67.6,29.97,West,279,0.0,0.0,96,0.00,,---,0.32,VWS V14.01,2013-05-21 02:30:00,
2013-05-20 22:35:00,68.7,67.5,29.97,West,279,0.0,0.0,96,0.00,,---,0.32,VWS V14.01,2013-05-21 02:35:00,
2013-05-20 22:40:00,68.6,67.4,29.97,West,279,0.0,0.0,96,0.00,,---,0.32,VWS V14.01,2013-05-21 02:40:00,
2013-05-20 22:45:00,68.5,67.3,29.97,West,279,0.0,0.0,96,0.00,,---,0.32,VWS V14.01,2013-05-21 02:45:00,
2013-05-20 22:50:00,68.5,67.3,29.97,West,279,0.0,0.0,96,0.00,,---,0.32,VWS V14.01,2013-05-21 02:50:00,
2013-05-20 22:55:00,68.4,67.5,29.97,West,279,0.0,0.0,97,0.00,,---,0.32,VWS V14.01,2013-05-21 02:55:00,
2013-05-20 23:00:00,68.4,67.5,29.97,West,279,0.0,0.0,97,0.00,,---,0.32,VWS V14.01,2013-05-21 03:00:00,
2013-05-20 23:05:00,68.4,67.5,29.96,West,279,0.0,0.0,97,0.00,,---,0.32,VWS V14.01,2013-05-21 03:05:00,
2013-05-20 23:10:00,68.4,67.5,29.95,West,279,0.0,0.0,97,0.00,,---,0.32,VWS V14.01,2013-05-21 03:10:00,
2013-05-20 23:15:00,68.4,67.5,29.95,West,279,0.0,0.0,97,0.00,,---,0.32,VWS V14.01,2013-05-21 03:15:00,
2013-05-20 23:20:00,68.5,67.6,29.95,West,279,0.0,1.0,97,0.00,,---,0.32,VWS V14.01,2013-05-21 03:20:00,
2013-05-20 23:25:00,68.4,67.5,29.95,West,279,0.0,1.0,97,0.00,,---,0.32,VWS V14.01,2013-05-21 03:25:00,
2013-05-20 23:30:00,68.4,67.5,29.95,West,279,0.0,1.0,97,0.00,,---,0.32,VWS V14.01,2013-05-21 03:30:00,
2013-05-20 23:35:00,68.4,67.5,29.95,West,279,0.0,0.0,97,0.00,,---,0.32,VWS V14.01,2013-05-21 03:35:00,
2013-05-20 23:40:00,68.4,67.5,29.95,West,279,1.0,3.0,97,0.00,,---,0.32,VWS V14.01,2013-05-21 03:40:00,
2013-05-20 23:45:00,68.4,67.8,29.95,West,279,0.0,3.0,98,0.00,,---,0.32,VWS V14.01,2013-05-21 03:45:00,
2013-05-20 23:50:00,68.5,67.9,29.95,West,279,0.0,3.0,98,0.00,,---,0.32,VWS V14.01,2013-05-21 03:50:00,
2013-05-20 23:55:00,68.5,67.9,29.94,West,279,0.0,3.0,98,0.00,,---,0.32,VWS V14.01,2013-05-21 03:55:00,